GFSWCAN_850_rhum_024.txt.gz
RH
79 73 71 67 57 51 50 47 46 50 57 59 55 50 40 38 37 47 52 51 42 58 69 58 49 46 53 51 79 66 67 62 76 73 79 85 89 83 75 63 90 86 96 97 95 87 65 41 51 56 52 34 35 43
82 78 71 63 57 54 49 45 45 47 53 57 61 60 50 42 48 47 49 45 42 44 68 66 60 51 41 40 45 61 48 60 53 86 93 97 95 95 83 75 70 72 67 78 70 70 43 43 49 40 40 36 38 36
80 72 62 62 61 54 50 44 42 40 44 51 58 56 51 46 47 43 45 40 38 61 71 68 72 64 51 44 43 46 49 50 48 42 75 95 70 95 91 94 73 69 58 77 63 45 56 43 36 40 43 43 42 45
71 65 67 66 61 56 51 48 42 36 36 36 48 57 51 41 38 35 41 37 32 37 64 73 70 68 68 56 47 42 38 42 43 47 73 98 77 78 91 76 83 68 66 66 76 62 50 40 40 37 38 41 46 49
71 69 68 64 62 60 56 48 42 38 35 31 30 39 52 48 43 43 39 36 31 27 70 74 67 64 67 64 58 51 45 42 49 64 94 88 71 88 98 96 96 64 66 76 72 35 42 38 34 38 47 47 50 64
76 74 70 68 64 63 53 48 45 41 36 33 32 34 38 40 40 37 38 47 37 29 37 89 76 76 66 64 62 59 58 56 59 61 78 71 70 72 98 97 62 49 41 39 42 39 46 51 50 54 56 59 70 77
82 78 76 71 70 68 55 50 49 45 40 36 33 34 32 30 28 24 32 55 49 39 34 94 94 80 80 76 74 76 74 73 72 74 87 87 95 78 97 97 52 44 44 45 50 57 62 55 55 59 64 76 78 78
91 88 84 78 79 71 55 56 55 52 46 40 36 34 33 33 32 42 51 63 56 40 42 93 94 83 85 90 82 83 81 83 92 97 99 98 99 99 99 88 77 70 65 61 63 66 71 74 73 82 87 86 69 60
98 95 88 88 86 72 66 67 66 62 55 48 44 42 41 38 47 69 66 64 60 44 65 90 84 85 96 99 98 98 98 98 99 100 100 98 100 98 98 94 84 73 76 76 72 76 85 87 90 80 73 71 88 100
100 99 96 92 89 77 75 82 79 70 64 58 52 52 62 66 67 66 67 62 66 77 81 98 98 98 97 100 100 95 95 98 91 98 100 100 99 91 82 90 93 84 76 83 91 90 84 78 88 90 98 99 98 96
100 100 100 99 95 93 92 90 84 77 72 64 61 74 86 81 66 66 82 85 93 88 99 100 99 99 98 99 100 99 100 100 94 86 98 98 97 87 86 89 95 97 97 97 95 89 96 96 99 98 99 92 76 59
99 100 100 100 100 100 98 91 85 79 75 71 73 83 77 77 79 90 98 100 97 100 100 99 100 100 98 92 98 100 98 99 95 95 100 99 93 95 98 100 100 100 100 99 100 99 99 98 96 88 82 71 49 36
100 100 100 100 100 100 100 100 93 86 76 77 81 80 81 94 98 92 99 99 100 100 100 100 100 100 100 93 99 100 99 99 95 99 99 99 99 100 100 100 100 100 100 100 98 94 92 82 68 61 57 34 28 33
98 95 95 98 99 100 100 100 100 94 86 89 92 98 96 97 99 99 99 99 100 99 100 99 99 99 100 98 100 100 100 100 99 98 97 99 99 98 93 81 96 97 83 61 56 56 52 45 36 34 34 37 39 40
96 95 88 84 87 97 100 99 98 93 91 97 94 98 98 100 100 100 100 99 100 100 100 99 99 99 99 99 99 98 98 97 97 97 98 99 99 97 97 95 93 83 74 75 72 68 66 51 41 44 47 55 57 53
71 67 68 71 70 74 81 87 73 58 80 94 97 99 100 99 100 99 100 99 100 100 99 99 99 99 98 98 97 97 96 95 97 96 99 99 99 99 85 75 72 74 74 75 66 51 48 52 52 50 51 54 55 55
55 62 63 63 59 60 65 66 55 68 90 87 100 100 100 99 99 100 100 100 100 99 99 96 94 96 98 98 97 98 97 99 99 99 99 100 95 85 70 61 50 50 52 55 54 58 61 63 66 70 68 69 71 70
39 51 51 50 52 54 52 61 78 88 99 99 99 100 100 100 100 100 99 99 96 96 97 95 97 97 97 96 99 99 92 84 82 84 93 100 94 75 69 62 62 66 63 62 67 72 75 72 71 71 73 75 76 78
50 50 36 43 43 46 67 78 80 86 100 100 100 99 100 100 100 100 96 87 83 80 83 85 92 98 98 91 89 90 96 81 80 86 96 84 73 69 66 68 69 67 74 78 78 76 75 77 79 76 67 57 53 56
25 33 31 35 45 60 77 83 83 81 96 99 99 95 96 96 95 92 90 88 84 81 80 91 90 84 75 69 71 76 84 77 88 86 75 74 71 70 68 73 79 85 83 71 59 52 47 44 43 48 56 62 65 68
27 33 36 46 56 70 79 80 79 87 86 90 96 91 95 93 92 89 90 80 80 80 88 92 91 79 78 76 80 76 73 70 71 68 72 74 80 85 84 79 70 60 56 55 53 49 50 57 63 62 59 58 59 61
25 32 43 53 65 78 86 85 80 86 82 92 85 88 89 92 90 89 93 84 78 91 98 92 96 83 79 78 78 76 74 72 70 69 71 79 91 83 72 66 64 62 58 56 57 61 64 61 57 55 54 52 56 59
38 34 56 66 72 78 95 84 86 77 73 98 98 97 98 93 94 94 94 87 84 91 97 94 95 100 96 96 92 84 81 80 72 77 82 78 73 69 65 65 62 59 59 60 64 60 53 48 41 38 43 48 54 56
45 64 91 100 97 100 96 98 98 92 93 99 99 98 94 94 95 96 95 95 98 93 97 97 97 92 89 93 93 94 92 90 85 80 74 70 74 79 73 66 67 70 69 63 51 42 33 32 36 40 45 51 58 67
64 94 90 87 97 91 100 100 98 96 100 99 97 98 99 95 97 93 93 97 98 98 98 98 99 99 98 100 100 95 92 88 89 94 95 93 82 74 75 76 73 64 45 33 29 30 34 37 42 46 52 64 76 83
94 98 99 100 100 96 99 99 100 98 98 97 96 97 97 96 96 96 96 97 97 97 97 98 97 96 95 96 96 96 96 95 94 89 78 77 77 77 76 64 45 35 35 39 40 40 42 46 49 52 57 69 84 91
90 91 99 99 100 100 98 100 99 98 97 96 97 96 96 96 96 96 97 96 96 97 97 99 95 94 94 93 94 95 94 87 75 75 78 82 81 65 48 41 39 42 46 48 50 52 52 54 58 65 75 84 92 97
98 98 95 96 97 98 97 97 97 96 97 97 96 96 96 95 94 96 96 97 96 96 96 95 93 94 96 97 96 94 86 72 68 73 72 53 47 46 48 50 51 51 54 57 58 59 62 64 69 77 88 95 95 96
98 98 98 97 97 97 97 97 97 97 97 97 96 96 97 97 99 99 98 97 97 96 96 96 95 96 96 95 93 81 65 54 53 54 46 44 45 48 51 53 55 58 59 60 62 64 66 73 79 87 91 91 92 95
97 98 97 98 97 97 96 98 98 99 97 96 95 96 95 100 99 98 97 97 96 97 96 96 96 95 89 70 54 46 45 45 45 45 44 44 48 52 56 60 61 62 62 62 63 66 71 74 79 83 84 84 87 90
89 90 88 92 100 99 96 96 96 98 99 96 96 94 96 97 99 98 98 97 96 96 96 95 90 64 47 46 46 45 43 42 40 41 42 47 56 61 64 66 63 55 56 63 70 73 75 79 82 84 86 88 90 91
80 83 89 94 97 86 91 93 96 93 90 94 95 96 97 98 97 100 100 98 98 88 67 53 49 48 47 43 38 34 30 30 30 31 37 44 52 58 59 57 56 61 70 75 77 80 83 85 87 88 90 92 93 94
92 93 91 94 94 96 92 92 82 93 89 96 96 97 98 98 98 100 100 100 89 64 54 52 50 46 40 36 32 30 28 26 30 36 43 52 59 63 66 72 75 77 79 81 82 84 87 89 91 93 94 95 95 95

GFSWCAN_850_rhum_030.txt.gz
RH
87 95 100 99 100 100 98 91 82 71 63 68 68 66 64 55 54 62 50 45 45 60 74 62 48 57 56 50 59 61 55 61 62 85 84 63 83 48 42 36 54 57 75 90 74 93 78 31 40 45 35 37 40 39
100 100 99 100 97 91 78 74 67 66 67 65 64 68 63 50 52 56 53 53 50 52 87 64 52 45 45 53 57 59 51 52 47 63 80 81 95 91 63 53 48 51 45 47 44 39 33 36 35 40 46 44 44 47
99 99 97 97 90 75 64 64 66 64 62 65 67 64 55 46 62 61 48 51 56 80 86 80 84 59 48 42 40 54 60 59 54 56 63 76 100 63 95 58 54 45 48 50 48 28 33 36 38 39 41 43 43 45
94 90 82 74 70 70 70 66 70 74 72 68 66 58 48 49 62 52 50 56 59 68 90 86 78 71 60 51 46 39 40 43 42 50 81 96 97 61 67 50 50 46 49 46 48 37 35 36 42 45 49 54 56 58
78 76 73 72 76 78 77 77 80 79 73 66 63 56 50 52 68 62 55 57 59 52 92 88 83 79 70 57 51 43 42 43 50 66 94 88 68 73 80 69 62 48 45 56 52 45 45 43 51 62 66 66 72 76
73 73 74 73 71 73 76 84 74 66 70 58 58 58 54 56 57 56 53 55 44 56 64 98 86 90 75 64 53 50 47 44 64 67 92 72 79 69 95 64 69 72 73 73 61 67 68 70 78 84 82 79 80 79
70 70 73 71 65 69 69 78 93 77 70 62 54 55 52 60 49 43 58 48 43 38 43 98 91 87 82 75 72 74 67 70 78 92 98 97 84 68 96 73 77 80 79 85 87 81 72 82 78 78 83 88 97 100
74 75 72 72 67 67 60 69 76 80 83 81 80 75 76 66 50 62 58 43 34 27 29 95 92 93 88 95 98 93 93 92 98 100 99 97 97 95 93 83 86 92 87 91 82 89 83 80 87 96 98 99 100 99
78 77 75 71 62 62 54 62 67 62 60 60 60 56 58 58 57 62 46 37 31 26 66 81 99 94 98 99 98 98 98 100 97 99 99 91 97 99 87 94 100 99 100 100 96 96 99 99 100 100 100 100 95 96
82 82 82 72 65 64 66 66 50 49 48 42 36 30 46 64 61 49 40 36 33 48 60 100 100 98 94 100 99 98 96 97 93 96 99 100 97 94 99 100 100 99 99 98 99 99 100 100 97 95 94 93 85 74
82 77 74 70 68 67 69 62 58 47 43 36 45 77 72 54 47 51 75 84 82 99 99 99 97 93 99 93 99 100 100 99 93 85 95 99 97 94 99 100 100 96 92 89 92 92 85 80 77 69 74 80 92 80
86 82 79 78 75 67 66 65 63 56 50 58 63 61 56 59 62 94 100 100 95 96 99 99 100 99 100 100 94 96 100 98 93 85 99 97 96 99 99 100 100 96 98 99 99 96 96 95 95 84 62 48 47 49
96 90 88 86 82 80 77 67 68 64 61 58 55 58 63 81 100 100 100 100 98 99 100 100 100 100 100 99 99 92 100 100 87 98 97 99 99 100 100 100 100 99 99 91 83 63 53 51 49 52 56 57 58 60
100 99 99 98 96 92 83 76 76 76 66 72 81 100 100 100 99 100 97 100 100 100 100 99 99 98 99 100 100 100 100 100 100 93 90 98 99 99 100 100 95 83 62 68 71 68 58 50 52 56 61 61 57 54
94 98 100 99 100 100 97 90 84 73 86 90 81 100 100 99 100 100 100 99 100 100 100 99 99 98 100 100 100 100 100 96 85 84 90 100 99 99 99 96 82 67 78 79 78 64 54 57 57 57 57 58 65 70
76 83 86 96 97 96 99 97 89 87 94 94 98 99 99 99 100 100 100 100 100 100 99 93 99 100 100 99 100 99 96 88 89 91 99 100 99 98 98 95 86 90 80 62 55 60 63 65 68 73 80 75 57 44
54 64 73 77 73 68 67 82 86 96 98 99 98 100 100 99 99 99 100 100 100 99 100 98 100 99 88 92 95 84 92 86 97 100 100 93 92 97 98 89 81 68 63 67 70 75 76 80 81 71 49 42 39 38
43 52 61 63 62 54 44 59 76 83 99 100 99 100 100 100 100 100 100 99 99 99 99 93 86 94 94 93 89 91 100 100 100 94 98 97 99 98 95 84 69 72 71 72 78 81 81 65 52 50 45 42 40 40
28 36 42 47 43 38 63 75 76 95 100 99 99 99 99 99 100 98 92 86 85 87 86 87 95 82 87 86 92 99 99 96 99 100 100 100 99 95 76 73 76 77 81 87 85 69 58 54 51 47 43 37 28 25
18 29 30 32 28 50 78 82 75 91 95 99 98 98 98 99 99 96 87 80 78 86 90 89 87 94 93 100 100 100 100 100 99 100 99 98 96 89 88 89 87 90 85 69 61 60 55 53 47 40 30 22 21 23
9 15 24 22 45 69 81 80 81 89 90 98 96 93 93 92 94 93 87 78 91 100 93 100 99 100 94 91 98 100 98 100 100 95 92 96 96 92 91 94 85 69 66 64 59 54 50 43 32 24 23 24 27 32
12 12 24 44 65 77 81 78 85 82 82 93 89 81 87 90 98 98 94 92 95 100 99 99 100 100 93 86 83 79 80 85 86 84 88 89 96 97 95 82 71 69 67 60 54 46 35 27 26 28 29 32 35 39
13 16 34 55 66 74 92 88 86 77 74 95 93 85 83 91 99 84 94 98 100 98 98 98 98 98 98 98 94 89 84 80 80 85 95 95 93 86 77 77 80 73 60 50 36 29 29 30 32 34 37 40 44 49
25 41 60 82 86 99 89 100 99 96 98 87 87 91 90 95 99 82 84 92 100 99 100 97 96 96 96 96 96 97 96 90 86 87 85 83 83 92 95 87 70 56 40 31 31 32 34 36 39 43 46 48 52 59
42 82 78 95 95 90 95 96 91 80 94 92 89 90 92 100 86 82 86 93 100 100 97 97 96 96 96 96 95 96 96 96 96 95 97 97 95 89 76 65 43 32 32 33 34 36 41 45 48 51 55 59 63 69
97 100 94 98 97 94 96 88 96 95 92 90 92 98 100 87 85 86 82 98 100 96 96 96 96 96 95 96 96 96 96 96 96 96 94 90 86 76 46 37 39 39 35 37 40 44 48 52 54 56 59 66 72 75
94 96 100 99 99 99 96 98 98 86 87 88 87 88 85 85 87 85 100 99 100 96 96 96 96 96 96 96 96 96 95 92 92 93 90 71 46 38 36 37 38 41 45 49 53 56 57 56 55 59 65 73 86 84
99 100 97 100 100 100 95 92 88 89 87 95 93 89 88 88 84 100 100 99 97 96 96 95 95 95 95 95 96 95 93 82 69 52 42 39 37 37 38 40 44 50 55 56 53 51 52 55 61 68 75 81 83 85
100 100 100 97 99 97 96 91 90 100 99 100 89 87 93 100 99 100 98 97 97 97 96 96 95 95 95 95 82 58 48 46 47 41 38 41 44 52 37 42 46 47 46 45 48 53 60 67 73 78 84 86 88 90
100 92 99 100 94 90 99 99 100 99 95 96 94 99 99 100 98 98 97 97 96 97 97 96 96 92 70 57 50 48 45 41 34 31 33 34 34 34 36 39 42 45 51 60 66 71 76 79 83 85 89 91 92 95
84 96 96 100 95 100 97 93 99 98 97 96 97 100 100 100 99 98 97 97 96 96 96 87 63 53 50 46 40 39 40 38 30 28 28 30 34 38 47 54 63 74 78 79 80 80 81 82 84 87 90 93 94 95
83 91 95 86 94 94 98 97 93 100 100 100 100 97 98 100 100 99 99 98 97 80 65 60 57 50 47 47 47 43 39 37 33 32 32 40 54 65 68 75 81 83 84 85 86 86 87 88 89 91 94 94 87 75
97 96 96 100 99 100 97 89 91 99 100 100 100 99 99 100 100 100 99 98 91 76 65 64 71 71 65 56 51 45 42 42 45 53 62 69 72 76 81 85 84 85 88 91 92 91 91 92 93 94 87 74 66 62

GFSWCAN_850_rhum_036.txt.gz
RH
80 77 63 70 73 56 58 61 62 66 75 82 84 87 88 94 97 100 86 99 98 76 35 35 26 25 30 45 68 52 54 50 62 81 86 71 83 55 43 32 62 71 83 94 83 95 88 21 26 38 41 30 31 31
71 69 79 83 72 71 63 64 74 75 78 85 84 91 96 94 99 100 96 85 82 99 67 53 42 39 38 41 48 52 41 44 48 54 71 83 92 93 74 59 26 50 44 61 57 61 31 22 25 26 30 32 35 37
66 64 64 70 74 70 73 76 86 86 87 86 90 91 86 85 85 85 80 96 99 80 69 54 67 44 42 47 45 51 45 39 40 39 63 78 93 72 95 70 50 31 32 46 42 23 23 24 27 36 45 49 48 49
73 76 79 81 84 89 91 97 95 99 93 97 92 93 89 91 78 81 87 95 87 57 98 83 72 57 48 51 49 48 48 45 50 56 81 98 98 46 80 51 54 40 34 33 35 29 31 44 52 62 59 62 63 61
86 81 84 89 90 93 98 94 94 99 97 100 100 92 80 78 94 95 96 99 77 60 87 83 78 71 52 56 55 53 53 51 61 78 94 87 54 75 72 64 68 36 36 64 64 48 52 62 62 61 62 65 63 62
100 100 100 100 100 99 97 98 100 100 99 87 86 79 82 80 83 98 99 69 56 70 76 93 86 79 69 63 62 63 58 52 50 76 83 56 60 65 98 77 46 52 53 57 56 62 66 65 74 83 85 86 87 86
100 99 93 91 94 95 94 92 85 79 78 80 80 82 81 83 84 98 70 62 51 70 80 97 92 87 78 75 75 67 62 64 61 71 85 69 58 66 98 82 55 59 59 67 66 68 66 66 86 96 94 93 84 84
100 100 100 100 98 86 80 77 78 77 77 78 78 79 81 76 85 83 67 62 55 66 76 98 100 92 89 83 92 88 79 75 82 89 85 83 82 84 88 62 64 66 70 67 70 72 74 82 92 99 99 94 90 94
100 100 100 100 98 94 87 79 73 70 72 76 82 82 88 92 90 70 68 62 58 52 84 98 99 100 86 94 95 96 85 98 88 99 84 81 93 90 68 69 72 77 76 77 79 80 82 90 97 96 88 93 92 85
92 97 98 100 97 97 84 81 85 84 82 82 83 78 91 79 65 58 60 61 60 81 84 95 86 99 85 92 96 90 93 94 95 93 87 100 94 80 84 85 86 84 86 91 97 99 100 97 88 85 88 90 85 91
77 83 88 83 84 96 93 91 85 81 81 76 70 89 82 70 59 70 78 83 74 93 89 88 82 90 94 91 98 97 98 93 97 86 92 97 86 84 96 92 92 89 93 95 83 92 89 86 85 83 86 88 68 59
78 74 80 76 70 67 89 85 81 79 71 64 65 70 61 62 69 94 100 99 97 96 96 97 89 92 97 81 86 91 92 85 94 79 99 93 89 97 98 94 90 91 91 84 82 85 89 89 85 77 77 70 56 53
82 82 80 78 72 72 66 68 61 61 65 64 61 68 83 95 100 100 100 100 98 99 100 95 99 96 96 88 87 85 89 98 68 100 83 95 100 100 94 87 85 84 81 80 80 79 78 78 77 62 56 75 90 60
94 88 82 74 68 75 64 63 59 55 50 66 92 100 100 100 100 100 100 100 99 100 100 94 99 98 95 99 96 100 100 85 99 97 92 100 100 100 97 94 88 82 74 69 72 75 46 44 49 52 53 56 60 65
89 91 87 80 79 71 62 59 65 62 78 92 92 100 100 99 100 100 100 99 100 100 99 99 98 95 100 100 99 100 100 96 88 90 98 100 100 100 98 97 85 73 72 79 81 56 54 52 58 60 63 65 69 54
92 87 89 95 88 84 78 72 73 79 92 98 98 100 99 99 99 99 99 100 100 99 96 87 100 100 100 100 98 100 94 90 99 94 100 100 100 99 100 87 71 78 87 83 65 56 61 91 98 86 79 69 51 48
72 80 82 91 92 88 78 69 76 88 98 99 99 99 100 99 99 100 100 100 100 96 100 99 100 99 84 93 96 98 100 99 100 100 100 99 99 100 99 93 96 94 87 92 92 94 97 83 85 76 77 67 58 71
68 57 50 45 52 76 76 84 88 94 97 99 98 99 99 99 99 99 100 100 99 99 99 100 98 100 100 99 97 99 100 100 100 100 100 100 100 99 99 98 98 94 96 97 94 86 92 80 79 81 78 66 64 69
48 49 45 33 27 39 68 78 94 97 99 99 99 99 99 100 100 100 100 100 100 100 100 100 99 98 99 99 99 100 100 99 100 100 100 100 99 99 99 100 97 95 87 94 97 93 87 80 74 72 63 42 35 60
30 32 31 26 20 55 87 85 86 91 96 98 98 98 98 99 98 98 97 98 93 96 94 94 95 98 98 98 99 100 99 99 99 100 99 100 99 96 96 97 96 99 98 94 90 89 88 92 84 67 42 30 44 35
12 16 16 15 43 84 92 87 89 95 94 94 98 92 99 94 98 96 94 83 81 97 95 98 98 98 99 98 99 100 100 100 98 93 98 99 99 96 97 98 98 98 98 100 99 88 81 83 67 34 29 43 36 47
14 11 15 30 55 76 90 90 82 81 87 95 86 81 91 93 93 96 90 85 91 99 97 97 97 99 97 96 97 97 98 99 100 99 100 100 99 100 100 97 96 96 96 95 97 98 94 53 31 28 29 37 54 97
8 11 25 43 57 87 97 84 79 76 76 75 76 71 79 81 85 81 87 90 96 97 97 96 97 98 98 96 96 96 97 97 97 96 97 97 96 96 96 96 97 96 95 88 65 49 41 36 38 32 53 68 95 100
21 35 49 91 90 96 93 86 73 74 75 81 68 78 82 82 81 76 84 90 99 99 97 95 98 98 99 98 96 96 96 95 95 96 96 96 95 95 95 95 95 95 92 67 47 46 53 49 42 73 90 80 100 100
55 87 84 81 85 76 75 71 73 66 81 78 78 81 85 86 77 78 84 94 99 98 100 98 100 98 100 100 100 96 96 96 95 95 95 97 95 95 95 95 89 62 40 40 42 40 46 50 76 86 73 99 100 100
88 97 82 79 80 77 73 73 74 80 76 75 80 83 89 78 76 87 85 97 100 100 100 100 100 100 100 99 100 96 95 96 95 95 95 95 95 95 96 96 100 84 44 35 31 33 58 72 73 78 94 100 100 100
84 82 88 91 91 87 82 82 82 78 81 84 83 78 79 83 86 89 98 100 100 100 99 98 100 100 100 100 98 96 96 96 95 90 79 56 43 37 37 44 46 42 33 30 32 32 35 44 59 80 99 100 100 100
92 92 82 93 86 82 72 78 81 89 89 86 91 86 86 89 88 99 100 94 95 100 97 96 95 96 98 98 100 100 100 90 64 63 75 86 77 66 63 50 39 34 53 66 54 55 62 78 79 92 100 100 100 100
93 93 95 91 78 81 93 90 91 98 99 96 90 87 90 100 100 99 97 96 97 98 97 98 98 97 96 90 66 54 42 52 64 71 94 100 100 100 74 56 83 92 99 89 100 100 100 100 100 100 100 100 99 100
89 90 78 78 75 85 98 97 100 97 100 100 99 98 100 100 100 98 100 100 99 100 100 100 100 99 99 100 100 89 59 51 44 41 43 57 56 54 64 100 99 98 100 100 100 100 100 100 100 100 100 100 100 100
90 82 75 73 90 99 98 99 92 98 100 100 100 98 99 100 100 100 97 100 100 98 99 100 100 97 86 61 72 84 99 70 44 43 46 51 58 68 100 95 100 100 100 100 100 100 100 100 100 100 100 100 100 100
86 89 78 72 90 96 100 95 95 98 99 98 96 99 100 99 97 100 96 100 100 100 100 100 100 100 82 74 58 58 46 50 61 57 59 60 64 69 73 77 81 94 100 100 100 100 100 100 100 100 100 100 100 100
81 82 82 75 73 86 95 90 78 90 92 91 93 96 100 99 96 100 100 98 97 97 98 96 96 93 72 51 50 56 69 82 67 65 64 63 68 71 76 81 86 90 92 97 100 100 100 100 100 100 100 100 100 100

GFSWCAN_850_rhum_039.txt.gz
RH
76 75 71 74 81 96 99 99 99 99 99 100 99 98 91 96 85 86 86 95 100 100 73 51 40 38 46 55 82 73 83 70 80 87 88 86 90 66 64 63 74 74 93 93 96 98 78 26 28 43 56 35 35 38
73 76 83 82 93 95 81 97 95 88 95 97 97 86 83 83 74 66 91 87 97 100 89 79 46 40 35 38 56 66 65 60 60 83 93 98 96 95 70 75 49 75 77 83 73 81 51 26 37 39 40 47 52 52
61 68 72 76 79 69 63 61 72 68 74 81 85 83 80 69 84 64 81 100 99 100 92 90 60 58 48 44 35 58 61 63 46 43 90 98 97 88 82 81 52 42 38 60 50 41 38 60 53 51 49 60 60 59
64 66 68 77 72 66 62 56 60 66 70 78 78 80 80 76 92 77 96 98 100 93 100 88 77 65 65 54 46 40 48 47 43 41 89 99 98 65 90 66 68 57 42 46 46 65 67 64 63 63 63 63 62 63
67 66 65 64 66 65 63 64 74 88 80 75 80 84 90 100 100 100 99 97 90 97 94 96 67 69 70 48 40 48 45 42 50 61 94 96 78 81 81 77 78 45 52 69 82 68 68 73 67 63 62 64 64 62
82 75 73 80 82 80 80 74 74 80 76 78 84 96 100 100 99 100 96 94 93 90 96 100 78 72 65 58 50 55 52 52 60 69 87 68 64 66 97 92 59 61 60 58 67 65 66 74 73 70 67 72 74 73
91 80 83 84 82 91 88 89 86 92 100 90 94 100 100 100 98 93 93 95 79 100 92 100 97 77 75 65 63 64 60 68 66 80 87 72 66 74 98 92 63 65 65 67 67 67 80 77 91 83 80 81 76 75
100 100 99 99 99 99 99 94 94 94 94 92 97 99 100 95 92 100 88 83 79 75 73 100 100 89 84 86 84 84 80 78 86 92 84 91 83 86 92 72 62 67 68 70 70 68 80 89 88 88 83 78 80 85
94 100 100 100 100 100 100 100 100 100 100 100 100 96 99 92 97 83 64 57 45 58 99 93 100 100 87 92 90 89 92 100 86 100 90 83 95 96 78 74 71 69 72 78 81 84 88 89 94 91 90 82 78 87
99 100 98 94 95 98 98 98 98 100 100 100 94 97 100 98 75 69 58 50 54 73 84 100 95 100 90 90 99 91 89 97 95 97 83 100 98 84 81 78 82 78 77 76 84 96 92 94 89 88 90 94 92 87
100 100 100 99 91 90 89 89 96 98 93 87 94 100 86 76 64 61 77 84 81 100 88 92 92 99 95 98 99 94 98 96 100 97 95 99 98 89 88 85 83 83 84 84 82 86 86 87 90 94 94 84 77 55
99 100 100 100 100 98 96 97 98 92 85 84 83 84 83 74 66 89 99 99 99 100 94 100 96 95 92 87 94 96 92 99 97 85 97 92 97 94 91 91 88 89 84 88 88 89 85 85 84 83 78 50 45 45
90 91 100 100 100 100 100 99 92 85 79 70 66 77 84 94 99 89 97 96 99 99 99 96 99 95 96 84 87 97 86 96 79 91 85 97 99 96 92 90 88 86 86 86 85 86 84 80 78 70 56 69 59 53
82 82 83 92 93 89 95 92 79 67 54 69 90 98 100 100 99 99 99 100 100 100 100 94 99 100 97 99 100 88 100 90 98 99 91 99 100 97 87 83 82 80 83 82 78 79 76 73 60 66 83 82 61 60
85 85 79 81 83 77 69 66 60 51 70 88 89 99 99 100 100 100 100 99 100 100 94 98 100 93 100 98 100 99 99 92 91 96 100 100 100 94 90 88 83 79 74 80 66 44 48 51 52 60 68 67 64 52
81 74 79 80 76 71 64 60 58 67 86 95 98 98 99 99 99 99 100 100 100 98 92 90 100 97 100 99 96 97 92 97 100 100 100 100 100 100 99 92 93 86 94 82 59 59 62 68 64 66 74 66 55 53
70 78 91 87 76 71 69 62 82 92 99 99 99 99 99 99 99 99 99 100 100 99 100 100 95 100 97 97 99 99 100 100 100 100 100 100 100 99 97 98 99 99 98 81 64 84 99 94 85 76 72 66 62 62
43 38 50 82 75 69 64 71 80 93 99 99 98 99 99 99 99 99 99 100 100 100 100 100 100 99 99 98 99 100 100 100 100 99 99 100 100 99 98 99 99 96 91 80 83 80 87 83 79 78 75 67 70 65
46 40 26 20 38 51 64 80 84 98 99 99 99 99 99 99 100 100 100 100 100 100 99 99 96 97 97 98 99 99 99 99 99 100 100 100 99 99 99 98 97 98 97 93 86 87 86 83 80 79 71 52 37 40
19 16 13 12 18 54 79 84 85 92 99 99 99 98 99 99 99 92 90 96 89 91 94 96 97 98 98 98 98 99 99 99 98 99 99 99 99 99 99 98 97 96 94 96 95 92 82 78 75 72 53 35 30 32
9 10 10 14 51 77 91 87 91 95 95 97 98 95 96 88 98 92 81 66 74 98 96 97 98 97 97 98 99 99 99 99 99 98 98 100 99 97 97 99 99 98 97 97 96 97 97 94 82 49 29 26 29 38
10 8 12 30 55 76 79 87 83 83 88 91 81 80 89 92 96 92 68 84 96 98 96 97 97 96 96 96 97 97 98 99 100 100 100 100 99 98 98 98 98 98 96 95 95 95 95 87 42 33 30 29 37 60
8 12 27 47 60 83 85 70 68 76 88 83 71 80 87 85 86 84 90 92 96 98 97 98 97 96 96 97 96 95 96 96 96 96 97 97 96 96 96 95 95 96 96 95 95 95 75 40 39 34 34 41 47 58
23 48 59 82 89 92 80 75 71 67 61 83 88 91 90 83 79 74 95 94 97 95 92 96 98 94 90 88 92 95 96 97 96 95 96 96 95 95 95 95 95 95 95 95 86 52 46 44 39 36 36 42 50 72
54 89 81 86 76 73 82 81 85 82 89 89 88 93 92 77 92 96 96 97 94 92 96 100 92 93 97 96 96 96 95 95 95 94 95 95 95 95 95 95 95 95 85 46 40 36 33 31 35 37 41 53 78 94
85 91 81 84 81 81 84 80 76 93 88 89 86 74 78 87 91 97 93 97 98 96 96 97 100 96 96 97 96 95 98 97 96 95 96 97 96 95 97 97 87 70 43 34 31 29 29 30 33 39 51 76 99 100
82 88 88 89 94 87 77 75 79 85 96 98 96 91 96 96 98 96 95 96 98 94 95 96 96 98 100 99 97 97 92 83 77 75 67 56 47 43 47 48 47 45 35 33 36 36 40 49 57 67 76 88 99 100
95 89 96 84 82 76 91 91 95 97 97 85 94 100 98 98 98 97 99 97 99 95 93 93 94 96 96 96 96 97 93 89 92 96 89 80 76 75 70 47 38 42 53 64 68 68 76 79 86 86 88 91 92 92
88 86 89 84 77 78 98 98 97 97 92 98 96 98 98 97 100 98 98 96 96 97 96 98 100 100 96 85 51 42 48 55 56 66 76 95 98 68 54 57 72 82 81 79 86 96 100 100 100 100 99 100 100 100
82 77 72 71 79 97 98 95 96 91 95 94 87 98 98 100 100 98 96 96 96 93 95 96 95 97 99 93 84 71 72 61 43 42 46 48 52 61 67 88 93 89 86 91 93 90 95 99 99 100 100 100 100 100
82 77 73 80 97 92 94 95 90 93 93 90 91 85 98 96 97 99 96 96 98 100 99 92 70 63 68 71 69 69 72 57 47 54 61 62 65 69 72 75 79 84 92 99 100 100 100 100 100 100 100 100 100 100
84 84 82 94 99 97 90 89 89 96 97 96 100 89 98 99 100 96 100 100 96 95 97 95 92 92 81 58 53 56 59 65 64 68 60 56 58 61 67 75 80 84 88 93 99 100 100 100 100 100 100 100 100 100
84 77 76 77 92 95 86 87 95 94 94 96 96 96 91 94 99 100 100 97 92 91 93 93 95 100 92 73 65 63 65 72 71 66 65 63 56 61 68 72 75 78 81 86 92 97 98 100 100 100 100 100 100 100

GFSWCAN_850_rhum_042.txt.gz
RH
97 92 81 79 79 76 77 79 82 79 64 62 58 59 72 70 96 99 98 100 100 95 85 85 51 44 44 50 79 72 74 74 91 82 86 89 79 72 74 63 66 64 85 90 95 87 60 39 32 39 47 44 42 41
75 77 89 84 82 84 85 79 73 73 71 80 75 73 77 85 91 98 100 99 99 100 95 96 73 63 49 44 52 74 57 64 69 84 94 98 88 91 74 86 61 63 62 74 71 72 51 37 38 40 40 47 54 48
80 76 77 81 82 81 97 92 95 99 100 98 96 88 91 97 91 100 100 90 99 99 94 85 73 71 62 41 43 56 64 57 55 59 91 96 74 87 82 83 63 50 59 69 60 68 70 63 55 52 46 51 60 58
79 84 89 96 99 96 100 99 98 100 100 100 97 98 99 100 100 100 99 87 92 97 100 91 83 79 65 39 41 42 38 41 41 58 93 99 87 68 86 66 65 60 50 59 88 74 70 72 68 62 62 62 60 62
65 68 81 82 74 74 76 88 91 96 100 98 99 100 99 98 98 92 94 99 98 94 100 89 88 87 76 50 45 43 43 42 55 70 93 86 85 84 86 77 75 52 55 69 83 65 68 76 71 66 63 65 64 61
60 66 73 71 64 64 65 66 66 74 92 99 100 99 94 98 97 96 98 98 90 99 98 100 87 92 84 61 52 46 42 49 53 58 92 76 75 64 84 87 66 65 55 39 71 63 61 75 70 66 60 65 68 65
70 70 66 62 65 69 63 60 73 83 88 95 91 90 85 81 80 96 91 75 75 99 97 100 96 98 94 91 83 79 75 72 58 86 89 76 79 70 97 89 73 73 62 60 59 64 85 76 84 76 72 77 75 78
77 73 72 74 74 72 71 64 70 85 92 91 88 84 97 96 100 95 96 99 88 100 94 100 99 95 92 94 97 94 90 84 88 91 89 93 90 86 88 79 74 76 74 76 73 68 69 83 88 86 80 77 79 77
87 80 75 74 75 71 68 67 72 85 93 81 75 98 100 100 98 91 83 98 98 95 100 100 100 100 93 92 89 91 90 100 88 100 99 84 98 95 84 81 80 73 70 88 80 75 84 84 86 83 79 80 75 81
99 99 99 100 97 85 73 78 77 76 84 93 100 99 97 91 80 92 97 100 100 96 92 100 100 100 92 95 100 96 94 100 99 96 87 99 99 90 85 75 75 75 73 80 91 99 93 90 86 87 77 76 77 82
100 100 100 100 98 93 89 94 97 100 100 100 98 97 99 93 96 96 99 98 93 99 92 99 98 99 93 97 100 97 100 99 99 95 95 100 99 90 87 82 77 76 77 77 74 82 84 82 89 84 92 88 85 67
100 99 97 99 98 96 98 98 96 100 99 88 80 96 100 98 93 91 100 97 97 99 98 100 100 98 97 88 95 93 96 98 96 90 96 97 93 90 87 90 84 83 82 81 82 87 87 88 87 86 85 75 65 44
99 97 95 99 99 99 92 100 100 97 89 82 87 90 84 95 97 90 100 96 98 100 100 100 99 96 84 80 96 95 94 91 84 89 92 96 99 94 90 90 93 90 86 90 92 91 91 95 90 76 71 54 45 48
100 100 98 100 100 100 100 98 89 70 67 82 85 98 98 98 99 100 99 99 100 100 100 99 100 100 97 100 100 92 99 96 99 96 91 99 99 95 95 94 93 93 90 91 90 91 88 87 81 69 49 50 50 51
96 90 95 99 100 100 97 82 64 62 69 92 96 99 99 100 100 100 100 100 100 100 98 100 100 92 100 99 99 99 98 91 88 91 99 100 99 94 94 94 92 91 90 92 94 91 96 96 82 74 81 67 60 50
85 80 85 86 78 73 77 66 60 68 81 92 98 98 98 99 99 98 99 100 100 97 96 92 100 95 100 97 93 96 90 99 99 99 100 100 96 90 91 92 92 91 98 98 93 84 79 65 77 77 72 63 56 53
74 81 76 77 72 67 63 60 75 87 99 98 99 99 100 99 100 100 100 100 100 98 100 98 95 100 97 97 99 99 99 99 100 100 100 100 95 96 98 97 98 99 95 91 93 83 66 68 70 68 67 65 62 62
52 74 69 66 62 65 62 67 75 84 99 99 99 99 100 99 100 99 100 100 98 99 99 99 99 96 97 97 98 99 99 99 99 100 100 100 100 99 99 97 98 98 97 95 87 92 89 80 77 75 70 69 69 70
17 17 48 65 54 52 69 79 78 98 99 99 98 99 99 100 99 99 99 99 99 98 96 97 95 96 97 97 97 99 99 99 99 99 100 100 99 98 98 98 98 98 96 96 99 99 96 85 80 78 75 72 70 59
20 14 13 32 45 54 77 82 81 91 98 99 98 100 99 99 96 94 91 88 88 91 94 95 96 96 96 97 98 99 99 99 99 99 99 99 99 99 99 98 98 98 98 98 97 90 89 85 86 83 71 48 42 38
10 15 23 22 48 75 91 88 99 94 97 99 98 97 97 75 76 81 77 70 76 97 95 97 97 96 97 97 97 99 99 99 99 98 98 98 99 99 98 98 98 98 97 95 92 94 96 96 95 93 49 35 29 32
10 9 13 34 64 70 75 87 92 90 88 91 83 81 89 97 97 67 69 81 95 97 97 97 96 96 95 95 96 96 97 99 99 99 98 98 98 98 98 98 98 97 96 96 96 96 96 96 95 90 66 37 37 41
9 16 38 51 59 71 75 65 67 70 89 78 72 86 91 91 97 64 91 91 96 97 98 96 95 96 96 96 96 95 96 96 96 96 96 96 96 96 96 96 96 96 95 95 96 95 95 95 94 69 39 36 36 40
22 52 70 82 84 95 72 78 71 60 71 84 92 94 92 98 69 78 96 95 97 97 95 97 92 90 88 88 92 96 97 96 95 95 95 96 95 95 96 95 95 95 96 96 96 95 93 69 42 37 36 36 38 48
54 86 71 84 74 73 88 88 88 90 98 94 93 97 93 80 95 98 96 97 96 96 99 96 92 91 94 99 97 98 98 98 94 91 95 96 96 96 96 96 96 95 94 82 50 40 38 38 37 37 39 45 55 65
84 85 83 72 80 85 91 87 85 96 97 99 92 82 83 90 94 99 92 97 96 96 96 97 97 92 94 96 93 92 98 100 100 90 100 100 97 95 92 81 66 54 43 36 35 36 37 37 40 45 52 63 77 95
92 96 85 92 95 83 82 83 83 92 100 100 100 97 94 99 99 96 96 97 97 96 97 98 97 96 98 98 97 92 82 80 80 82 76 64 61 65 62 49 47 47 45 48 51 54 58 64 70 75 80 87 95 100
100 93 97 80 76 85 100 100 100 98 100 93 92 100 100 99 97 98 99 99 98 96 94 94 94 94 86 80 91 98 99 84 81 79 75 70 68 66 52 48 52 65 71 74 78 84 89 91 95 97 99 98 95 100
92 85 77 75 74 86 98 98 99 99 93 98 96 98 98 98 100 99 97 97 98 98 97 96 98 98 93 67 50 49 62 65 84 66 56 48 49 52 57 66 70 77 84 85 87 92 99 100 100 100 100 100 100 100
79 78 70 82 96 98 98 89 92 93 89 81 89 100 97 99 100 99 99 97 95 93 95 98 99 100 96 70 67 66 57 45 44 48 53 55 56 57 58 62 67 73 80 84 88 92 97 100 99 100 100 99 100 100
80 77 80 92 99 96 96 92 85 79 82 85 81 83 94 97 100 100 97 100 100 99 96 85 74 81 77 64 51 49 52 51 51 53 55 60 62 61 63 67 74 81 83 87 92 97 100 100 100 100 100 100 100 100
83 87 89 99 98 94 96 96 96 94 99 97 99 91 99 98 100 98 100 100 100 98 91 91 92 88 72 56 56 58 59 63 64 62 56 52 55 57 62 67 69 68 69 72 81 92 100 100 100 100 100 100 100 100
80 75 80 92 97 97 85 87 95 95 96 98 98 95 97 94 100 100 98 98 95 96 94 92 80 70 70 76 74 64 61 55 54 55 54 60 61 63 68 72 75 76 78 80 87 94 98 100 100 99 99 100 100 100

GFSWCAN_850_rhum_045.txt.gz
RH
100 100 100 99 99 99 99 98 92 82 76 57 51 80 94 86 90 99 99 100 98 98 90 88 66 62 60 53 68 71 70 78 88 82 87 87 84 73 70 60 63 70 87 87 90 75 62 37 36 37 42 44 38 41
99 99 99 99 99 99 99 99 96 82 74 63 48 70 91 98 97 99 100 100 100 98 98 99 86 76 79 69 51 63 60 71 66 83 95 97 89 92 76 82 60 55 66 76 68 68 49 48 40 34 32 35 44 43
93 94 96 96 96 96 94 91 85 77 64 57 64 76 78 93 98 98 100 98 99 98 96 84 67 64 72 74 54 55 71 60 57 52 91 94 77 87 84 84 71 56 59 69 65 63 76 68 49 39 38 39 46 48
82 81 79 79 79 78 77 73 68 70 78 75 63 68 67 75 87 91 99 99 97 100 98 79 92 97 81 80 60 54 41 52 61 61 95 100 84 73 86 68 70 65 62 80 88 77 73 70 59 52 52 53 56 61
93 85 85 83 85 92 94 89 79 73 66 60 58 56 58 58 80 94 99 96 99 96 99 94 78 75 71 62 59 50 54 50 62 83 95 83 86 86 89 78 79 59 68 79 84 69 62 67 65 61 59 62 62 61
90 97 98 98 100 98 99 100 99 100 99 99 92 83 67 76 82 99 100 99 100 99 95 100 81 74 85 87 81 54 45 51 52 54 90 78 78 67 88 87 60 54 46 42 52 61 59 66 68 66 63 64 65 64
79 77 71 67 82 94 91 99 99 100 97 98 89 87 91 99 100 94 82 70 58 98 99 99 97 88 100 91 82 79 72 68 62 76 85 80 85 63 93 85 68 69 60 49 50 59 82 75 75 72 67 69 70 71
71 71 64 61 64 71 75 80 96 100 99 98 98 99 96 89 99 87 92 87 57 94 95 100 98 96 98 100 99 100 89 84 88 98 90 91 94 88 82 81 83 80 72 75 69 59 58 73 76 77 76 76 76 79
64 60 60 62 61 58 72 81 90 86 95 94 95 92 88 96 92 76 100 99 87 82 96 98 100 100 94 100 100 94 94 100 93 100 100 91 99 91 81 88 89 83 68 82 80 71 75 75 84 85 82 83 78 82
68 60 54 56 60 68 68 72 82 88 96 99 98 97 97 94 69 86 97 92 95 100 94 100 100 100 99 100 100 98 98 100 100 98 92 98 99 88 88 84 82 83 76 78 89 100 97 98 90 89 82 77 75 77
72 68 60 57 56 56 60 66 76 79 92 99 98 100 98 100 92 98 99 100 99 100 99 98 100 99 96 98 100 98 100 99 100 98 96 100 99 92 91 83 79 74 76 77 74 78 84 80 84 86 81 77 74 74
95 80 71 52 48 54 70 79 86 92 92 93 99 92 93 93 98 99 100 100 100 99 98 100 100 99 98 95 98 95 98 98 97 93 96 99 93 92 92 88 83 80 82 78 77 82 86 84 83 79 77 78 77 72
98 82 78 88 89 64 54 73 80 73 99 100 87 93 98 100 100 99 98 100 99 99 99 100 100 94 86 80 98 92 93 97 89 95 94 94 99 100 100 95 94 90 85 84 89 90 89 86 81 78 85 85 79 48
81 82 100 97 89 89 88 98 98 100 100 96 100 98 99 98 100 99 99 99 99 100 100 99 100 100 99 99 99 89 100 93 98 94 96 99 100 100 100 95 91 93 90 90 90 90 90 90 96 95 84 76 47 44
91 99 100 100 95 96 99 100 100 100 94 100 99 99 99 100 100 99 99 100 100 100 99 97 99 96 99 98 99 97 93 86 94 93 97 100 100 100 100 99 94 96 95 91 93 96 99 99 97 80 54 48 48 45
100 100 100 100 100 100 94 82 72 75 80 85 97 98 99 96 97 99 100 99 100 100 98 89 99 95 99 97 94 98 89 99 99 99 100 100 100 100 99 98 97 98 97 98 100 99 98 98 93 89 71 58 52 46
84 88 88 94 96 96 78 73 69 78 90 93 98 99 100 99 100 100 100 100 100 98 99 98 98 99 98 97 98 100 98 99 100 100 100 100 98 99 99 100 99 99 99 99 98 98 97 96 94 85 68 58 56 56
77 80 84 77 72 65 60 71 74 80 99 99 98 99 98 98 98 98 98 99 99 100 99 99 90 96 96 96 96 97 99 99 99 99 99 99 99 99 99 99 99 98 97 97 97 96 96 96 85 68 65 65 64 65
56 65 64 50 52 53 67 72 74 98 99 99 98 98 95 98 97 97 98 98 98 94 91 95 92 95 96 95 96 97 98 99 98 99 99 100 99 99 98 98 98 98 98 97 97 96 93 80 83 76 74 73 71 74
18 30 59 58 43 57 78 81 80 92 98 99 96 95 94 96 84 78 73 70 70 80 89 93 95 96 96 96 96 97 98 99 99 98 98 99 99 99 99 98 98 97 97 97 98 97 97 96 83 82 89 90 92 75
24 34 41 43 59 78 91 94 98 97 98 99 99 88 73 65 74 77 76 65 74 96 94 96 96 96 96 96 96 97 98 99 98 98 97 97 98 98 98 98 98 98 97 97 97 96 96 96 96 96 95 92 85 79
11 12 20 45 62 66 67 73 89 92 88 94 81 82 95 96 84 79 68 82 94 97 96 96 96 96 95 95 96 96 97 97 97 97 97 97 96 96 96 96 97 96 96 96 96 96 96 96 95 95 95 95 95 87
9 17 37 48 53 62 75 64 64 67 87 85 72 88 96 99 85 64 88 92 97 97 97 97 96 96 96 96 96 95 96 96 95 95 96 95 96 96 96 95 96 95 95 95 95 95 95 95 95 95 95 95 82 57
21 46 68 73 66 89 66 74 71 79 78 88 94 97 96 96 70 79 96 96 97 96 96 96 94 91 87 85 91 97 98 96 96 95 96 96 95 95 96 95 95 95 95 96 96 96 96 96 94 88 62 45 41 42
51 84 65 86 70 75 90 89 92 92 98 97 93 98 96 70 97 98 96 97 97 97 97 96 94 94 97 100 98 98 98 93 88 88 98 98 97 96 95 95 94 92 84 73 60 49 40 41 41 40 39 40 45 52
98 96 87 81 84 86 95 97 100 100 99 99 97 97 70 90 94 99 94 97 98 100 100 99 97 94 94 92 87 88 97 99 95 84 97 94 83 67 57 48 47 47 42 42 45 48 51 55 58 61 65 70 77 85
99 98 81 87 91 86 95 89 85 93 99 96 100 96 92 99 100 97 97 98 96 98 97 96 94 92 98 100 100 98 90 83 78 79 81 75 66 57 48 46 49 55 58 57 56 56 60 65 72 78 84 89 95 96
100 78 91 79 82 89 100 100 100 100 100 98 84 99 100 100 99 100 99 100 97 97 95 94 91 73 61 81 99 100 81 79 81 71 67 61 52 51 54 58 64 68 70 72 77 81 88 91 94 96 96 98 99 97
88 75 69 86 88 94 98 99 99 100 96 95 98 100 100 99 99 98 99 98 99 98 95 93 94 100 91 76 64 60 52 46 46 45 44 45 44 45 47 51 56 60 63 66 75 84 94 100 100 100 99 100 100 100
83 79 79 94 97 99 99 95 98 86 79 83 93 100 97 100 100 100 100 99 97 93 94 97 99 98 82 71 60 50 48 46 45 44 46 45 48 48 48 48 49 53 58 63 67 71 78 87 94 99 100 100 100 100
84 80 87 96 98 98 97 85 81 76 80 85 81 87 95 98 99 100 100 100 100 100 100 88 84 84 73 58 51 49 49 49 43 42 44 48 48 51 55 58 60 62 65 67 69 70 71 79 89 96 99 100 100 100
86 94 92 100 97 97 90 91 88 94 99 95 97 94 97 95 99 100 100 100 100 97 89 91 93 81 67 55 52 51 47 44 45 48 52 54 59 63 65 69 71 74 78 82 84 86 90 95 98 98 98 99 100 100
78 84 88 93 98 97 98 97 96 96 96 97 98 96 99 94 97 97 100 100 97 94 91 92 90 85 63 57 55 48 46 50 55 60 64 68 69 68 69 72 76 78 80 83 86 88 90 92 93 94 96 98 100 100

GFSWCAN_850_rhum_048.txt.gz
RH
97 96 94 97 91 80 98 100 100 100 100 100 97 99 97 76 78 81 87 91 100 94 95 90 75 61 60 59 80 65 66 70 92 84 88 86 88 79 76 62 72 73 84 87 86 81 73 38 37 42 42 32 34 41
100 100 100 98 99 100 100 100 100 100 100 97 99 100 100 99 77 75 97 86 97 100 98 96 88 83 71 60 56 61 61 74 63 86 93 93 82 93 73 78 59 64 66 74 69 71 51 39 36 30 29 32 38 37
99 99 100 100 100 100 100 99 99 95 98 99 95 92 87 86 73 73 91 87 100 98 82 87 74 79 81 77 61 58 61 67 67 50 84 92 84 86 85 79 68 58 58 66 62 60 68 58 46 40 32 32 34 35
100 99 99 99 100 100 100 100 100 97 92 79 73 65 59 57 63 87 91 87 98 84 96 80 79 76 78 77 70 64 50 58 62 68 95 98 90 76 87 68 68 66 64 76 73 79 76 69 58 45 39 38 40 42
89 92 97 98 98 97 97 96 98 90 68 63 74 95 99 99 99 87 84 97 100 85 97 85 68 61 65 79 75 76 65 61 68 88 96 88 86 85 91 82 85 67 69 74 65 57 48 48 46 51 44 45 45 44
80 81 76 73 73 77 78 76 74 72 68 74 89 92 88 97 98 100 100 98 100 97 97 98 70 61 78 84 86 68 69 76 66 60 90 82 82 74 91 87 59 46 46 48 45 46 49 47 54 58 54 60 61 58
99 93 98 100 98 87 76 72 71 70 80 89 80 68 64 78 93 92 86 74 75 99 98 98 98 78 97 99 90 91 83 81 71 69 87 85 88 80 92 80 52 62 57 52 51 54 74 68 65 66 62 68 70 70
86 97 96 99 100 98 87 88 87 76 75 78 82 60 62 72 72 77 84 57 68 99 98 100 97 95 98 100 100 100 93 82 84 94 90 93 92 87 83 68 74 69 62 64 70 60 48 60 70 72 69 70 72 74
60 68 79 81 99 97 95 91 92 92 98 98 90 79 97 97 91 71 72 68 69 67 99 100 100 100 94 99 100 99 96 100 99 100 100 90 100 91 72 80 83 75 65 69 76 65 68 67 76 76 74 76 70 78
55 58 61 70 77 94 100 100 98 97 91 90 100 98 92 91 83 94 100 95 87 86 86 94 99 100 94 96 100 100 98 100 100 99 96 100 99 85 79 82 83 84 74 75 77 99 91 92 84 86 80 76 72 78
46 51 56 62 77 87 93 94 96 99 100 97 95 90 85 74 95 100 100 100 100 100 100 92 90 99 99 100 100 99 100 100 99 99 98 100 98 90 90 88 87 80 78 78 70 71 78 71 78 81 85 86 85 85
64 59 68 74 84 96 100 100 100 99 100 93 97 88 87 89 97 100 99 100 99 97 100 100 100 98 100 98 98 100 100 99 99 96 100 100 98 98 99 93 88 83 80 80 75 75 80 81 84 86 85 86 88 86
73 71 64 65 67 87 91 91 95 99 100 99 100 98 98 100 99 99 98 99 99 100 100 100 100 97 100 98 100 100 99 99 97 100 99 99 100 100 100 100 98 91 85 83 88 89 91 92 90 83 91 94 90 93
76 77 66 62 61 73 87 96 96 99 99 100 98 98 98 99 99 99 100 100 100 100 100 100 100 100 100 99 99 99 100 97 98 98 98 98 100 100 100 98 92 92 90 89 91 92 90 90 95 98 98 94 97 93
86 93 98 93 71 80 97 98 99 99 100 100 99 98 98 100 99 99 100 99 100 100 100 98 98 96 99 98 99 95 90 98 97 99 99 100 100 100 100 99 94 93 92 92 93 91 93 94 97 99 99 97 66 50
91 100 100 100 99 97 99 100 100 99 95 94 98 98 99 96 97 98 100 100 100 100 98 86 96 97 99 99 97 98 91 98 98 99 100 100 100 100 100 100 100 100 99 99 99 96 98 99 98 97 88 75 83 81
100 98 100 98 100 100 100 100 97 86 88 91 98 98 98 98 98 98 99 99 100 99 99 98 96 98 97 97 96 96 98 98 99 99 100 100 100 100 100 100 100 100 99 99 98 98 98 98 96 95 95 95 74 45
96 100 100 100 97 98 97 98 80 82 98 98 95 98 97 98 97 97 98 99 99 99 92 98 88 93 97 96 96 96 96 97 99 98 99 99 99 99 99 98 98 98 98 98 98 98 97 97 97 97 96 76 56 58
98 98 99 100 98 83 70 75 77 96 98 97 97 96 93 92 95 96 97 97 95 89 90 94 91 94 95 95 95 96 97 97 98 98 98 99 99 99 98 98 98 98 98 98 97 97 97 97 97 96 95 74 67 72
50 56 57 58 59 59 72 77 81 89 98 96 96 94 81 82 81 78 74 74 73 86 90 92 95 96 96 96 96 97 96 98 98 97 97 98 98 98 98 98 98 98 97 97 97 97 97 96 96 96 95 92 94 95
47 51 48 43 56 77 92 97 98 99 99 96 83 72 69 63 72 76 75 65 73 94 94 96 96 97 96 96 96 96 96 97 96 96 96 96 97 96 97 97 97 97 96 96 96 96 96 96 96 96 96 96 96 96
26 30 35 47 58 62 68 76 88 93 90 91 83 89 97 92 87 76 69 82 92 97 96 96 96 96 95 95 96 96 97 96 96 96 96 96 95 96 95 96 96 95 95 96 96 96 96 96 96 95 95 95 95 95
14 22 41 49 58 64 76 64 64 75 90 86 74 88 97 98 82 61 89 89 98 97 98 96 96 96 96 96 96 95 96 95 94 95 96 95 96 96 96 95 96 95 95 95 96 95 95 95 95 95 95 95 95 95
18 42 60 67 62 84 66 75 77 80 80 92 95 99 96 90 69 79 97 96 98 96 95 96 96 94 91 89 92 96 96 96 94 94 96 94 92 95 95 95 94 94 94 96 95 94 94 90 84 76 61 49 43 45
52 88 61 84 72 74 91 95 96 92 97 99 95 96 100 71 97 99 97 97 96 97 97 95 88 88 95 100 99 100 97 91 87 88 97 95 90 81 70 62 57 49 46 42 38 39 40 43 44 47 50 55 60 65
96 97 95 100 96 91 99 100 100 100 98 95 97 96 69 91 94 100 94 97 97 97 97 97 96 93 93 90 87 86 86 80 71 64 65 60 54 48 44 43 44 46 45 47 48 48 50 51 54 59 66 74 83 88
100 98 81 91 93 89 99 90 87 93 98 99 98 97 92 100 100 97 98 98 97 97 93 80 81 93 99 100 95 92 86 72 63 67 65 53 45 44 45 46 47 52 55 55 55 57 61 66 71 74 79 84 88 93
98 71 89 90 86 90 100 100 100 100 99 98 80 100 100 100 99 100 100 99 98 98 96 91 81 60 68 83 83 67 54 53 50 49 49 47 48 48 46 48 51 52 53 56 59 68 76 81 88 91 98 99 97 98
89 80 73 100 93 97 99 100 100 100 100 90 98 100 100 100 100 100 100 99 99 99 98 97 96 97 83 78 68 55 51 50 49 41 37 35 32 34 36 41 45 48 49 52 57 60 65 68 74 81 89 95 100 100
83 81 86 95 97 98 100 96 88 84 85 89 96 100 98 100 100 100 99 100 99 93 88 90 93 88 69 59 53 48 46 42 35 32 32 38 46 49 53 56 59 62 63 64 64 68 70 71 73 75 78 84 89 94
91 76 88 97 100 98 89 80 80 77 78 85 82 89 98 100 100 100 99 95 94 95 100 95 91 89 77 61 53 49 43 38 39 44 49 53 56 59 61 62 62 64 67 70 72 74 76 78 79 82 86 87 90 94
91 94 88 100 98 91 92 99 90 94 99 91 98 94 96 97 99 98 96 96 98 100 96 93 86 78 80 57 46 38 38 45 51 53 55 56 58 58 59 62 66 70 72 73 73 73 74 75 77 80 82 85 88 91
83 87 88 94 98 98 96 97 95 97 97 100 100 99 99 92 93 96 96 96 97 95 92 86 74 61 49 40 39 45 52 55 54 53 55 56 57 59 63 66 69 70 70 69 68 68 70 72 75 78 82 85 89 91